Regional Weather Roundup
Issued by NWS New Orleans/Baton Rouge, LA

Home | Current Version | Previous Version | Graphics & Text | Print | Product List | Glossary On
Versions: 1 2 3 4 5 6 7 8 9 10 11 12 13 14 15 16 17 18 19 20 21 22 23 24 25 26 27 28 29 30 31 32 33 34 35 36 37 38 39 40 41 42 43 44 45 46 47 48 49 50
044
ASUS44 KLIX 280907
RWRLIX
NEW ORLEANS REGIONAL WEATHER ROUNDUP
NATIONAL WEATHER SERVICE NEW ORLEANS LA
400 AM CDT SAT MAR 28 2015

NOTE: "FAIR" INDICATES FEW OR NO CLOUDS BELOW 12,000 FEET WITH NO
      SIGNIFICANT WEATHER AND/OR OBSTRUCTIONS TO VISIBILITY.
      SKY/WX - SKY CONDITION AND SIGNIFICANT WEATHER.
      TMP - AIR TEMPERATURE.     DP    - DEWPOINT TEMPERATURE.
      RH  - RELATIVE HUMIDITY.   PRES  - PRESSURE.
      HI  - HEAT INDEX.          WCI   - WIND CHILL INDEX.

*  THESE STATIONS ARE NOT NWS OR FAA STATIONS AND ARE NOT UNDER
   NWS QUALITY CONTROL.

LAZ038-040-048-061>063-065>067-069-281000-
SOUTHEAST LOUISIANA

CITY           SKY/WX    TMP DP  RH WIND       PRES   REMARKS
N.O. AUDUBON   NOT AVBL
N.O. INTL ARPT CLEAR     54  37  52 NE9       30.17R
N.O. LAKEFRONT CLEAR     57  39  51 NE15      30.18R
SLIDELL        CLEAR     43  40  89 CALM      30.18R
BATON ROUGE    CLEAR     46  41  82 CALM      30.17R
BOOTHVILLE     CLOUDY    57  46  66 NE6       30.15S
BELLE CHASSE   CLEAR     49  39  68 NE6       30.16S
BOGALUSA*        N/A     42  39  88 CALM      30.19S
GALLIANO*      SUNNY     56  42  60 MISG      30.16S
NEW ROADS*       N/A     48  39  72 E5        30.17F
GONZALES*        N/A     48  41  76 CALM      30.17R
HAMMOND*       CLEAR     46  36  66 CALM      30.19S
HOUMA*         CLEAR     49  44  84 CALM      30.16S
PORT FOURCHON* SUNNY     59  45  58 NE10G20   30.18R

$$

MSZ070-080>082-281000-
SOUTHERN MISSISSIPPI

CITY           SKY/WX    TMP DP  RH WIND       PRES   REMARKS
MCCOMB         CLEAR     42  37  82 CALM      30.17F
GULFPORT       CLEAR     45  38  76 CALM      30.17R
BILOXI         CLEAR     47  36  65 N5        30.16R
PASCAGOULA     CLEAR     41  38  89 CALM      30.17R

$$

COASTAL OBSERVATIONS
LAKE AND NEARSHORE STATIONS

STATION/POSITION TIME  TEMP    WIND        PRES    WAVE
                       AIR SEA DIR/SP/G            HT/PER
                 (UTC) (F)     (DEG/KT/KT) (MB)    (FT/S)
PASCAGOULA       0800   49      10/  8/ 10 1020.9
WAVELAND YACHT   0800   51 63   30/ 10/ 12 1021.4
GRAND ISLE       0800   58 68   60/  9/ 14 1020.5
SOUTHWEST PASS   0800   57 52   40/ 12/ 13 1020.9
NEW CANAL        0800   57      50/ 14/ 16 1021.5
SHELL BEACH      0800   57 67   40/ 12/ 16 1021.1

OFFSHORE STATIONS

STATION/POSITION TIME  TEMP    WIND        PRES    WAVE
                       AIR SEA DIR/SP/G            HT/PER
                 (UTC) (F)     (DEG/KT/KT) (MB)    (FT/S)
64 S DAUPHIN ISL 0850   59 71   30/ 14/ 17 1020.8    4/ 6

$$




USA.gov is the U.S. government's official web portal to all federal, state and local government web resources and services.